Location: Exeidioux
(45.6312°N, 1.6819°E)
Time: 06:48:15
(UTC+00:00)

Cosmos 1500 - Pass Details

Date: 03 March 2021
Orbit: 499 x 517 km, 82.5° (Epoch: 10 April)

Event Time Altitude Azimuth Distance (km) Brightness Sun altitude
Rises 18:46:26 0° 179° (S) 2,579 6.7 -11.9°
Reaches altitude 10° 18:48:33 10° 176° (S) 1,700 5.7 -12.2°
Maximum altitude 18:52:13 61° 95° (E) 574 3.1 -12.9°
Drops below altitude 10° 18:55:55 10° 16° (NNE) 1,714 5.7 -13.5°
Sets 18:58:04 0° 13° (NNE) 2,604 6.7 -13.9°
